Location: La Valentine
(43.4027°N, 5.5335°E)
Time: 08:11:57
(UTC+00:00)

Daily predictions for brighter satellites

Satellite Brightness Start Highest point End
(mag) Time Altitude Azimuth Time Altitude Azimuth Time Altitude Azimuth
CZ-4C R/B 4.5 16:55:04 10° NNW 16:58:27 14° NNE 17:02:07 10° NE
Cosmos 1110 Rocket 4.3 16:54:15 10° SSW 16:59:29 73° WNW 17:04:43 10° NNE
Cosmos 2227 Rocket 2.7 16:54:28 10° N 16:59:43 37° ENE 17:04:56 10° SE
Cosmos 1892 4.1 16:57:53 10° NNE 17:00:45 19° ENE 17:03:37 10° ESE
Cosmos 1939 Rocket 3.9 16:57:36 10° ESE 17:00:47 24° ENE 17:03:57 10° NNE
Cosmos 1302 Rocket 4.2 16:56:23 10° S 17:01:29 55° ESE 17:06:39 10° NNE
USA 307 4.0 17:02:31 10° NW 17:06:19 29° NNE 17:10:05 10° E
H-2A R/B 2.9 17:03:03 10° N 17:07:05 52° WNW 17:11:04 10° SSW
Envisat 3.7 17:02:35 10° S 17:07:35 60° W 17:12:37 10° NNW
COSMO-SKYMED 1 3.4 17:05:06 10° NE 17:08:55 30° E 17:12:44 10° SSE
Cosmos 1300 2.6 17:05:42 10° S 17:09:29 77° E 17:13:19 10° N
SAR-Lupe-4 4.2 17:07:18 10° NNE 17:10:38 35° E 17:13:55 10° SSE
Cosmos 1400 Rocket 3.1 17:07:12 10° S 17:11:09 48° E 17:15:06 10° NNE
USA 308 3.9 17:07:29 10° NW 17:11:20 31° NNE 17:15:03 10° E
Cosmos 1697 Rocket 3.6 17:07:52 10° SSE 17:12:34 28° ESE 17:17:17 10° NE
Cosmos 1486 Rocket 4.5 17:08:15 10° N 17:13:16 39° ENE 17:18:14 10° SE
CZ-4B R/B 1.1 17:11:28 10° NNE 17:14:39 69° ESE 17:17:44 10° S
Cosmos 1825 Rocket 4.0 17:10:59 10° NNW 17:15:25 69° W 17:19:47 10° S
Cosmos 1825 4.0 17:14:36 10° NE 17:16:19 13° ENE 17:17:30 11° E
Helios 1A Rocket 3.9 17:14:41 10° SE 17:18:07 26° ENE 17:21:32 10° N
ERS-2 2.1 17:14:48 10° NNE 17:18:28 88° ESE 17:22:06 10° SSW
YAOGAN 1 3.8 17:17:19 10° ESE 17:20:32 21° ENE 17:23:48 10° NNE
BREEZE-M TANK 3.4 17:11:31 10° W 17:21:48 75° N 17:25:00 13° E
Atlas Centaur 2 4.3 17:15:25 10° SW 17:22:14 30° S 17:29:22 10° ESE
NOAA 11 4.1 17:19:52 10° SSE 17:25:17 77° ENE 17:30:44 10° N
CZ-2D R/B 3.9 17:22:41 10° SE 17:26:05 32° ENE 17:29:29 10° N
Cosmos 44 4.2 17:22:24 10° WSW 17:26:43 44° NW 17:31:19 10° NNE
Okean O Rocket 2.5 17:23:00 10° S 17:27:16 54° W 17:31:33 10° NNW
Cosmos 1340 2.6 17:23:59 10° N 17:27:44 60° ENE 17:31:27 10° SSE
Cosmos 2228 4.0 17:23:44 10° SSW 17:27:52 50° WNW 17:32:02 10° N
SAR-Lupe-1 4.1 17:25:00 10° NNE 17:28:30 54° ESE 17:31:58 10° S
Cosmos 1726 Rocket 3.9 17:24:21 10° SSW 17:28:39 68° W 17:33:03 10° N
CZ-4 R/B 2.2 17:25:42 10° SE 17:28:55 26° ENE 17:32:10 10° NNE
Aureole 3 2.5 17:31:21 10° S 17:34:27 89° ESE 17:37:26 10° N
SL-4 R/B 3.1 17:31:34 10° NW 17:34:35 25° NNE 17:36:33 17° NE
Cosmos 1346 Rocket 3.3 17:31:49 10° N 17:35:32 35° ENE 17:39:13 10° SE
Cosmos 1980 Rocket 3.2 17:31:56 10° SSE 17:36:15 23° ESE 17:39:22 15° ENE
Cosmos 2058 3.4 17:32:33 10° N 17:36:20 35° ENE 17:40:06 10° SE
Cosmos 1992 Rocket 4.2 17:33:06 10° S 17:38:04 46° ESE 17:43:01 10° NNE
Cosmos 2297 Rocket 2.2 17:33:42 10° NNW 17:39:25 88° ENE 17:45:04 10° SSE
PSLV R/B 4.1 17:37:00 10° NNE 17:41:05 52° E 17:45:05 10° S
In-Cosmos 22 Rocket 4.0 17:35:46 10° N 17:41:10 76° E 17:46:40 10° SSE
CZ-2C R/B 3.7 17:37:14 10° SE 17:42:35 41° ENE 17:47:47 10° N
Cosmos 1315 Rocket 3.2 17:41:17 10° SSE 17:44:57 38° E 17:48:41 10° NNE
Cosmos 1553 Rocket 4.0 17:42:30 10° S 17:48:50 78° E 17:55:07 10° N
Cosmos 220 Rocket 3.9 17:46:20 10° S 17:50:38 66° ESE 17:55:01 10° NNE
Meteor 2-15 4.4 17:46:25 10° S 17:52:29 67° E 17:58:35 10° NNE
Meteor 2-10 Rocket 3.4 17:49:29 10° S 17:54:43 65° E 17:59:48 10° NNE
BREEZE-M R/B 4.0 17:51:10 10° WNW 17:55:00 47° NNE 17:59:00 23° E
USA 305 3.1 17:52:10 10° NW 17:56:23 52° NNE 17:58:11 30° E
Cosmos 1455 2.2 17:53:08 10° S 17:56:48 52° E 18:00:31 10° NNE
SKYMED 2 3.6 17:52:46 10° N 17:57:08 83° WNW 18:01:28 10° SSW
Cosmos 2360 4.3 17:53:44 10° S 17:59:16 53° ESE 18:04:36 11° NE
SeaSat 1 3.7 18:00:38 22° NE 18:00:54 22° NE 18:04:38 10° N
NOSS 3-4 (A) 4.5 17:56:11 10° NNW 18:02:27 35° NE 18:05:39 25° E
NOSS 3-4 (C) 4.5 17:56:18 10° NNW 18:02:33 35° NE 18:05:43 25° E
USA 306 3.0 17:58:40 10° NW 18:02:54 57° NNE 18:04:25 35° E
H-2A R/B 2.5 17:57:58 10° SE 18:03:02 42° ENE 18:08:09 10° N
Okean-O 2.5 18:00:01 10° SSE 18:04:24 74° ENE 18:08:52 10° N
Cosmos 2278 3.9 18:04:10 10° S 18:09:33 46° ESE 18:12:45 23° NE
MOS 1 Rocket 3.6 18:05:05 10° NNE 18:09:41 46° E 18:14:31 10° S
NOSS 3-3 (A) 3.8 18:04:43 10° SSW 18:10:30 88° SE 18:16:10 14° NE
Aureole 3 Rocket 4.4 18:06:38 10° SSW 18:10:34 45° WNW 18:15:59 10° N
NOSS 3-3 (C) 3.8 18:04:50 10° SSW 18:10:37 87° SE 18:16:14 14° NE
Cosmos 2219 4.3 18:07:22 10° NW 18:12:52 48° WSW 18:18:21 10° S
USA 215 4.4 18:10:10 20° NE 18:13:19 29° N 18:18:45 10° NW
Cosmos 1745 Rocket 4.0 18:10:34 10° N 18:16:55 90° SE 18:23:16 10° S
Cosmos 44 Rocket 3.2 18:13:21 10° SSW 18:18:03 67° ESE 18:19:58 36° NE
GEOS 3 Rocket 4.2 18:17:20 35° ENE 18:18:34 40° NE 18:23:35 10° NNW
ARGOS 3.5 18:17:21 35° ESE 18:18:54 43° ENE 18:24:00 10° N
Lacrosse 5 3.5 18:15:31 10° NNW 18:19:11 20° NNE 18:20:11 18° NNE
Cosmos 1408 2.7 18:16:16 10° NNW 18:19:56 73° W 18:23:36 10° S
Cosmos 2082 3.6 18:14:30 10° NNW 18:20:17 86° ENE 18:25:52 11° SSE
ATLAS 2AS CENTAUR R/B 3.4 18:17:33 10° NNW 18:24:31 38° NE 18:26:17 33° ENE
Cosmos 968 Rocket 4.3 18:20:25 10° NNW 18:25:28 52° WSW 18:30:27 10° S
Cosmos 1689 Rocket 4.3 18:23:16 10° NNW 18:25:44 26° WNW 18:28:11 10° SW
Cosmos 2369 3.8 18:28:17 10° SSW 18:33:59 76° WNW 18:39:11 13° NNE
Cosmos 1076 Rocket 3.6 18:30:07 10° NNW 18:34:21 72° W 18:38:35 10° S
CSL-04 Rocket 3.6 18:34:41 10° SSE 18:40:14 86° ENE 18:45:46 10° NNW
Cosmos 2227 Rocket 3.8 18:38:39 10° NW 18:43:42 34° WSW 18:48:44 10° SSW
Cosmos 2263 Rocket 2.9 18:40:48 10° NNW 18:45:07 37° NNE 18:45:07 37° NNE
Cosmos 1709 Rocket 3.9 18:40:01 10° N 18:46:26 87° E 18:52:49 10° S
USA 307 3.0 18:42:25 10° NW 18:46:28 70° WSW 18:46:28 70° WSW
CZ-4C R/B 3.7 18:43:09 10° NNW 18:49:20 32° NE 18:49:38 32° NE
OAO 2 Rocket 4.5 18:45:43 10° WSW 18:50:02 30° S 18:50:07 30° S
USA 308 3.3 18:47:24 10° WNW 18:51:15 62° WSW 18:51:15 62° WSW
Cosmos 1825 3.2 18:48:27 10° NNW 18:52:05 45° W 18:52:23 44° WSW
Cosmos 1697 Rocket 3.7 18:50:57 10° SW 18:56:17 44° WNW 19:01:26 11° NNE
YAOGAN 1 3.9 18:52:22 10° SSW 18:56:24 38° W 19:00:27 10° NNW
CZ-4 R/B 3.6 19:00:46 10° SSW 19:03:55 23° W 19:07:04 10° NW
Milstar 3 4.3 19:03:43 10° WSW 19:08:41 22° S 19:09:47 21° S
Cosmos 2315 Rocket 4.1 19:03:26 10° SSW 19:09:36 71° W 19:15:49 10° N
Atlas Centaur 2 4.0 19:03:54 10° WSW 19:11:07 32° S 19:12:40 30° SSE
SL-4 R/B 4.2 19:10:53 10° NW 19:12:08 20° NW 19:12:08 20° NW
Cosmos 1980 Rocket 2.8 19:14:22 10° SW 19:19:51 53° WNW 19:21:13 43° NNW
SeaSat 1 4.1 19:40:26 29° NW 19:40:26 29° NW 19:42:56 10° NNW
H-2A R/B 4.0 19:37:59 10° SSW 19:42:33 28° W 19:47:12 10° NW
NOSS 3-4 (A) 4.2 19:46:48 10° NW 19:53:08 63° W 19:53:08 63° W
NOSS 3-4 (C) 4.2 19:46:55 10° NW 19:53:11 63° W 19:53:11 63° W
USA 215 4.2 19:57:31 40° NNW 19:57:31 40° NNW 20:01:48 10° NW
Lacrosse 5 4.4 19:58:20 10° NW 19:59:23 16° NW 19:59:23 16° NW
ATLAS 2AS CENTAUR R/B 3.7 20:08:38 10° NW 20:13:44 43° WNW 20:13:44 43° WNW
CZ-4C R/B 4.2 20:31:17 10° NW 20:34:49 33° NW 20:34:49 33° NW
